• In Deutschland
  • Länderverzeichnis
  • Für 7 Tage
  • Wassertemperatur
  • Satellitenkarten
  • Wetterkarte
  • Widgets
  • user-avatar
    Anmelden

    Stündliche Wetter Kurmanovo

    Heute, 21 Oktober, Sonntag

    Zeit Temperatur Niederschläge Wind Luftdruck Luftfeuchtigkeit
    00:00 +4°C° 0 mm 2 m/S 749 mmHg 83%
    01:00 +4°C° 0 mm 2 m/S 749 mmHg 84%
    02:00 +4°C° 0 mm 2 m/S 750 mmHg 86%
    03:00 +3°C° 0 mm 2 m/S 750 mmHg 87%
    04:00 +3°C° 0 mm 2 m/S 750 mmHg 89%
    05:00 +3°C° 0 mm 2 m/S 750 mmHg 90%
    06:00 +3°C° 0 mm 2 m/S 750 mmHg 89%
    07:00 +3°C° 0 mm 2 m/S 750 mmHg 88%
    08:00 +4°C° 0 mm 2 m/S 751 mmHg 87%
    09:00 +5°C° 0 mm 2 m/S 751 mmHg 80%
    10:00 +7°C° 0 mm 2 m/S 751 mmHg 74%
    11:00 +8°C° 0 mm 2 m/S 751 mmHg 67%
    12:00 +8°C° 0 mm 2 m/S 751 mmHg 65%
    13:00 +9°C° 0 mm 2 m/S 751 mmHg 62%
    14:00 +9°C° 0 mm 2 m/S 751 mmHg 59%
    15:00 +8°C° 0 mm 2 m/S 751 mmHg 64%
    16:00 +7°C° 0 mm 2 m/S 751 mmHg 69%
    17:00 +7°C° 0 mm 1 m/S 751 mmHg 75%
    18:00 +6°C° 0 mm 1 m/S 752 mmHg 77%
    19:00 +6°C° 0 mm 1 m/S 752 mmHg 79%
    20:00 +5°C° 0 mm 1 m/S 752 mmHg 81%
    21:00 +5°C° 0 mm 1 m/S 752 mmHg 83%
    22:00 +4°C° 0 mm 1 m/S 752 mmHg 85%
    23:00 +4°C° 0 mm 1 m/S 752 mmHg 86%

    Morgen, 22 Oktober, Montag

    Zeit Temperatur Niederschläge Wind Luftdruck Luftfeuchtigkeit
    00:00 +4°C° 0 mm 1 m/S 752 mmHg 87%
    01:00 +4°C° 0 mm 1 m/S 752 mmHg 87%
    02:00 +2°C° 0 mm 0 m/S 752 mmHg 88%
    03:00 +3°C° 0 mm 1 m/S 752 mmHg 88%
    04:00 +3°C° 0 mm 1 m/S 752 mmHg 89%
    05:00 +3°C° 0 mm 1 m/S 751 mmHg 89%
    06:00 +3°C° 0 mm 1 m/S 751 mmHg 88%
    07:00 +4°C° 0 mm 1 m/S 751 mmHg 86%
    08:00 +4°C° 0 mm 1 m/S 751 mmHg 85%
    09:00 +6°C° 0 mm 1 m/S 751 mmHg 78%
    10:00 +6°C° 0 mm 2 m/S 751 mmHg 71%
    11:00 +8°C° 0 mm 2 m/S 751 mmHg 64%
    12:00 +8°C° 0 mm 2 m/S 750 mmHg 62%
    13:00 +9°C° 0 mm 3 m/S 749 mmHg 59%
    14:00 +9°C° 0 mm 3 m/S 749 mmHg 57%
    15:00 +8°C° 0 mm 3 m/S 748 mmHg 62%
    16:00 +7°C° 0 mm 3 m/S 748 mmHg 67%
    17:00 +6°C° 0 mm 2 m/S 747 mmHg 71%
    18:00 +4°C° 0 mm 3 m/S 747 mmHg 73%
    19:00 +4°C° 0 mm 3 m/S 746 mmHg 75%
    20:00 +3°C° 0 mm 3 m/S 746 mmHg 76%
    21:00 +3°C° 0 mm 3 m/S 746 mmHg 79%
    22:00 +3°C° 0 mm 3 m/S 745 mmHg 82%
    23:00 +3°C° 0 mm 3 m/S 745 mmHg 85%

    übermorgen, 23 Oktober, Dienstag

    Zeit Temperatur Niederschläge Wind Luftdruck Luftfeuchtigkeit
    00:00 +2°C° 0 mm 3 m/S 744 mmHg 87%
    01:00 +2°C° 0 mm 3 m/S 743 mmHg 90%
    02:00 +2°C° 0 mm 3 m/S 743 mmHg 92%
    03:00 +2°C° 0.2 mm 3 m/S 742 mmHg 93%
    04:00 +2°C° 0.2 mm 3 m/S 742 mmHg 94%
    05:00 +3°C° 0.2 mm 3 m/S 741 mmHg 95%
    06:00 +3°C° 0.5 mm 3 m/S 741 mmHg 94%
    07:00 +4°C° 0.5 mm 3 m/S 741 mmHg 94%
    08:00 +4°C° 0.5 mm 3 m/S 741 mmHg 93%
    09:00 +5°C° 0 mm 3 m/S 741 mmHg 87%
    10:00 +5°C° 0 mm 4 m/S 740 mmHg 81%
    11:00 +6°C° 0 mm 4 m/S 740 mmHg 76%
    12:00 +7°C° 0 mm 3 m/S 739 mmHg 70%
    13:00 +7°C° 0 mm 3 m/S 739 mmHg 65%
    14:00 +8°C° 0 mm 3 m/S 738 mmHg 60%
    15:00 +7°C° 0 mm 3 m/S 738 mmHg 64%
    16:00 +6°C° 0 mm 2 m/S 737 mmHg 68%
    17:00 +5°C° 0 mm 2 m/S 736 mmHg 72%
    18:00 +3°C° 0 mm 3 m/S 735 mmHg 74%
    19:00 +3°C° 0 mm 3 m/S 735 mmHg 76%
    20:00 +1°C° 0 mm 4 m/S 734 mmHg 78%
    21:00 +1°C° 0 mm 4 m/S 733 mmHg 77%
    22:00 +1°C° 0 mm 5 m/S 732 mmHg 77%
    23:00 +1°C° 0 mm 6 m/S 730 mmHg 76%

    24 Oktober, Mittwoch

    Zeit Temperatur Niederschläge Wind Luftdruck Luftfeuchtigkeit
    00:00 +2°C° 0.1 mm 6 m/S 729 mmHg 77%
    01:00 +2°C° 0.1 mm 7 m/S 728 mmHg 79%
    02:00 +2°C° 0.1 mm 7 m/S 727 mmHg 80%
    03:00 +2°C° 0.4 mm 7 m/S 725 mmHg 81%
    04:00 +1°C° 0.4 mm 8 m/S 724 mmHg 82%
    05:00 +1°C° 0.4 mm 8 m/S 723 mmHg 84%
    06:00 +3°C° 0.3 mm 7 m/S 722 mmHg 84%
    07:00 +3°C° 0.3 mm 7 m/S 721 mmHg 85%
    08:00 +3°C° 0.3 mm 7 m/S 720 mmHg 85%
    09:00 +3°C° 0.6 mm 6 m/S 720 mmHg 86%
    10:00 +3°C° 0.6 mm 6 m/S 720 mmHg 86%
    11:00 +5°C° 0.6 mm 5 m/S 720 mmHg 87%
    12:00 +5°C° 0.7 mm 5 m/S 719 mmHg 88%
    13:00 +5°C° 0.7 mm 5 m/S 719 mmHg 88%
    14:00 +5°C° 0.7 mm 4 m/S 719 mmHg 89%
    15:00 +5°C° 0.6 mm 4 m/S 719 mmHg 89%
    16:00 +3°C° 0.6 mm 5 m/S 720 mmHg 89%
    17:00 +3°C° 0.6 mm 5 m/S 720 mmHg 89%
    18:00 +3°C° 0.5 mm 5 m/S 720 mmHg 89%
    19:00 +3°C° 0.5 mm 5 m/S 720 mmHg 89%
    20:00 +3°C° 0.5 mm 5 m/S 720 mmHg 89%
    21:00 +3°C° 0.4 mm 5 m/S 720 mmHg 89%
    22:00 +3°C° 0.4 mm 5 m/S 720 mmHg 89%
    23:00 +3°C° 0.4 mm 5 m/S 721 mmHg 90%

    25 Oktober, Donnerstag

    Zeit Temperatur Niederschläge Wind Luftdruck Luftfeuchtigkeit
    00:00 +3°C° 0.6 mm 5 m/S 721 mmHg 90%
    01:00 +2°C° 0.6 mm 5 m/S 721 mmHg 91%
    02:00 +2°C° 0.6 mm 5 m/S 721 mmHg 91%
    03:00 +2°C° 0.6 mm 5 m/S 721 mmHg 91%
    04:00 +3°C° 0.6 mm 5 m/S 722 mmHg 90%
    05:00 +3°C° 0.6 mm 5 m/S 722 mmHg 90%
    06:00 +3°C° 0.3 mm 5 m/S 722 mmHg 89%
    07:00 +3°C° 0.3 mm 5 m/S 722 mmHg 88%
    08:00 +3°C° 0.3 mm 6 m/S 723 mmHg 86%
    09:00 +3°C° 0.2 mm 6 m/S 723 mmHg 84%
    10:00 +3°C° 0.2 mm 6 m/S 724 mmHg 82%
    11:00 +3°C° 0.2 mm 6 m/S 724 mmHg 80%
    12:00 +3°C° 0.2 mm 6 m/S 725 mmHg 79%
    13:00 +4°C° 0.2 mm 6 m/S 725 mmHg 78%
    14:00 +4°C° 0.2 mm 6 m/S 726 mmHg 78%
    15:00 +3°C° 0.3 mm 6 m/S 726 mmHg 79%
    16:00 +3°C° 0.3 mm 6 m/S 727 mmHg 80%
    17:00 +3°C° 0.3 mm 5 m/S 728 mmHg 82%
    18:00 +2°C° 0.1 mm 5 m/S 728 mmHg 83%
    19:00 +3°C° 0.1 mm 4 m/S 729 mmHg 84%
    20:00 +1°C° 0.1 mm 4 m/S 729 mmHg 85%
    21:00 +1°C° 0 mm 4 m/S 730 mmHg 87%
    22:00 +1°C° 0 mm 3 m/S 730 mmHg 89%
    23:00 +1°C° 0 mm 3 m/S 731 mmHg 91%

    26 Oktober, Freitag

    Zeit Temperatur Niederschläge Wind Luftdruck Luftfeuchtigkeit
    00:00 0°C° 0 mm 3 m/S 731 mmHg 93%
    01:00 0°C° 0 mm 3 m/S 731 mmHg 94%
    02:00 0°C° 0 mm 3 m/S 732 mmHg 95%
    03:00 0°C° 0 mm 3 m/S 732 mmHg 95%
    04:00 0°C° 0 mm 3 m/S 732 mmHg 94%
    05:00 0°C° 0 mm 3 m/S 733 mmHg 94%
    06:00 0°C° 0 mm 3 m/S 733 mmHg 93%
    07:00 0°C° 0 mm 3 m/S 733 mmHg 92%
    08:00 0°C° 0 mm 3 m/S 733 mmHg 90%
    09:00 0°C° 0 mm 4 m/S 733 mmHg 85%
    10:00 +1°C° 0 mm 4 m/S 734 mmHg 80%
    11:00 +4°C° 0 mm 4 m/S 734 mmHg 75%
    12:00 +3°C° 0.1 mm 5 m/S 734 mmHg 76%
    13:00 +3°C° 0.1 mm 5 m/S 734 mmHg 77%
    14:00 +5°C° 0.1 mm 5 m/S 734 mmHg 78%
    15:00 +3°C° 0.1 mm 5 m/S 734 mmHg 80%
    16:00 +4°C° 0.1 mm 4 m/S 734 mmHg 82%
    17:00 +4°C° 0.1 mm 4 m/S 734 mmHg 85%
    18:00 +3°C° 0 mm 4 m/S 735 mmHg 87%
    19:00 +3°C° 0 mm 3 m/S 735 mmHg 89%
    20:00 +3°C° 0 mm 3 m/S 735 mmHg 92%
    21:00 +2°C° 0 mm 3 m/S 735 mmHg 93%
    22:00 +2°C° 0 mm 3 m/S 735 mmHg 94%
    23:00 +2°C° 0 mm 3 m/S 735 mmHg 95%
    Mehr zeigen